SUPERVIEW-1 03

导读

SUPERVIEW-1 03又名高景一号03星,是中国自主研制运营的商业光学遥感卫星,于2018年1月9日在太原卫星发射中心成功发射。它全色分辨率达0.5米、多光谱分辨率2米,运行于530公里太阳同步轨道,与同组网卫星配合,可实现每日重访,能为国土资源、城市规划等领域提供高清晰对地观测数据,推动了中国商业遥感进入超高分辨率时代。

Basic Information
目录编号:
43099
目录名称:
SUPERVIEW-1 03
国际标识:
2018-002A
轨道中心:
EARTH
卫星名称:
SUPERVIEW-1 03
卫星全名:
--
卫星状态:
在轨 (已飞行3171 天)
发射日期:
2018-01-09 UTC
国别 :
中国 (CN)
星等 :
--
This satellite is enrolled in the Space Conjunction Data Service (SCDS) and the current flight risk assessment level is: No High Risk
Orbit Information
数据来源 国际轨道数据
星历时间: 2026-09-15T21:49:20+0800
8小时前
查看轨道信息
半长轴: 6818.655km
偏心率: 0.0043243
轨道倾角: 97.308°
近地点辐角 212.630°
升交点赤经 343.429°
平近点角 147.228°
近地点: 411.032km
远地点: 470.004km
周期: 93.392分钟
每日圈数: 15.418947
Detailed Information
使用方式:
暂无
2D Orbit Map
3D Orbit Map
Orbit Altitude Analysis Chart
Orbit Inclination Analysis Chart
Orbit Comprehensive Analysis Chart
View Comprehensive Chart
Conjunction Data List
Event ID Objects TCA Miss Dist (km) Collision Risk Probability Collision Risk Index (CRI) Action
CDM_260917-063504-309905-366422
2026-09-17T
06:35:32+0000
1.205 km
极远距离
1.411407E-5 中风险 0.58
CDM_260918-042404-309906-868521
2026-09-18T
04:24:35+0000
2.720 km
极远距离
1.512549E-6 低风险 0.39
CDM_260916-053004-309904-604522
2026-09-16T
05:30:19+0000
2.226 km
极远距离
1.331484E-6 低风险 0.37
CDM_260916-065304-309906-593521
2026-09-16T
06:53:27+0000
2.532 km
极远距离
1.010022E-6 低风险 0.35
Miss Distance Evolution Trend with All Objects Subscribe to Flight Safety Assessment
Collision Probability Evolution Trend with All Objects Subscribe to Flight Safety Assessment